AirNav   Air Wisconsin pilot careers
 
 1412 users online  

I96 Columbia-Adair County Airport
Columbia, Kentucky, USA

GOING TO COLUMBIA?


FAA INFORMATION EFFECTIVE 26 APRIL 2018

Location

FAA Identifier: I96
Lat/Long: 37-05-07.2230N / 085-20-49.8640W
37-05.120383N / 085-20.831067W
37.0853397 / -85.3471844
(estimated)
Elevation: 818 ft. / 249 m (estimated)
Variation: 02W (1985)
From city: 2 miles SW of COLUMBIA, KY
Time zone: UTC -5 (UTC -6 during Standard Time)
Zip code: 42728

Airport Operations

Airport use: Open to the public
Activation date: 06/1982
Control tower: no
ARTCC: INDIANAPOLIS CENTER
FSS: LOUISVILLE FLIGHT SERVICE STATION
NOTAMs facility: LOU (NOTAM-D service available)
Attendance: UNATNDD
Wind indicator: lighted
Segmented circle: yes
Lights: ACTVT MIRL RWY 8/26, PAPI RWY 8 & RWY 26 - CTAF.
Beacon: white-green (lighted land airport)
Operates sunset to sunrise.

Airport Communications

CTAF/UNICOM: 122.8
WX AWOS-3 at K24 (13 nm E): 119.6 (270-343-5556)
WX AWOS-3 at AAS (16 nm N): 121.125 (270-789-1985)

Nearby radio navigation aids

VOR radial/distance  VOR name  Freq  Var
LVTr346/31.3LIVINGSTON VOR/DME108.4002W
EWOr153/36.3NEW HOPE VOR/DME110.8001E

 
NDB name  Hdg/Dist  Freq  Var  ID
CUMBERLAND RIVER285/32.338805WCDX -.-. -.. -..-

Airport Services

Fuel available: 100LL
24 HR CREDIT CARD SVC AVBL.
Parking: tiedowns
Airframe service: NONE
Powerplant service: NONE
Bottled oxygen: NONE
Bulk oxygen: NONE

Runway Information

Runway 8/26

Dimensions: 2600 x 60 ft. / 792 x 18 m
Surface: asphalt, in good condition
Weight bearing capacity: 
Single wheel: 12.0
Runway edge lights: medium intensity
RUNWAY 8  RUNWAY 26
Traffic pattern: leftleft
Markings: nonprecision, in good conditionnonprecision, in good condition
Visual slope indicator: 2-light PAPI on left (4.00 degrees glide path)2-light PAPI on right (4.00 degrees glide path)

Airport Ownership and Management from official FAA records

Ownership: Publicly-owned
Owner: COLUMBIA-ADAIR CO. ARPT BOARD
P.O. BOX 1156
COLUMBIA, KY 42728
Phone 270-634-4974
Manager: CHRIS JANES
1021 POWELL ROAD
COLUMBIA, KY 42728
Phone 270-634-4974
ADDTL NUMBER 502-639-9900

Airport Operational Statistics

Aircraft based on the field: 13
Single engine airplanes: 13
    
Aircraft operations: avg 98/week *
49% transient general aviation
43% local general aviation
6% air taxi
2% military
* for 12-month period ending 29 July 2016

Instrument Procedures

There are no published instrument procedures at I96.

Some nearby airports with instrument procedures:

K24 - Russell County Airport (13 nm E)
KAAS - Taylor County Airport (16 nm N)
KTZV - Tompkinsville-Monroe County Airport (26 nm SW)
KEKQ - Wayne County Airport (27 nm SE)
KGLW - Glasgow Municipal Airport (29 nm W)
 
Loc | Ops | Rwys | IFR | FBO | Links
Com | Nav | Svcs | Stats | Notes

AirNav Hotels Sweepstakes
 
Area around I96 (Columbia-Adair County Airport)
 
Road maps at: MapQuest Bing Google
 
Aerial photo
WARNING: Photo may not be current or correct
Aerial photo of I96 (Columbia-Adair County Airport)
Do you have a better or more recent aerial photo of Columbia-Adair County Airport that you would like to share? If so, please send us your photo.

 
Sectional chart

 
Airport distance calculator
Flying to Columbia-Adair County Airport? Find the distance to fly.

From to I96

Sunrise and sunset
Times for 22-May-2018
 Local
(UTC-5)
 Zulu
(UTC)
Morning civil twilight04:5909:59
Sunrise05:2910:29
Sunset19:4700:47
Evening civil twilight20:1701:17

Current date and time
Zulu (UTC)  22-May-2018 14:12:26
Local (UTC-5)  22-May-2018 09:12:26
 
METAR
KEKQ 
27nm SE 
221356Z AUTO VRB04KT 10SM FEW037 OVC080 23/18 A3013 RMK AO2 SLP214 T02330183
KGLW 
29nm W 
221350Z AUTO 22006KT 10SM CLR 24/18 A3009 RMK AO2 T02360184
K6I2 
33nm N 
221350Z AUTO 21008KT 10SM FEW035 23/18 A3009 RMK AO2
KSME 
35nm E 
221355Z AUTO 10SM OVC090 22/17 A3013 RMK AO2
K8A3 
40nm S 
221355Z AUTO 18007KT 10SM OVC027 22/18 A3012 RMK A01
KDVK 
40nm NE 
221355Z AUTO 23007KT 10SM CLR 24/18 A3010 RMK AO2
KBRY 
44nm N 
221355Z AUTO 21004KT 10SM SCT043 SCT060 22/20 A3007 RMK AO1
KEKX 
45nm NW 
221355Z AUTO 21006KT 10SM VCTS SCT030 BKN037 OVC044 22/19 A3008 RMK AO2 LTG DSNT NW T02220194
TAF
KSME 
35nm E 
221120Z 2212/2312 23004KT 6SM BR SCT015 BKN060 FM221500 00000KT P6SM -SHRA VCTS SCT030CB BKN200 FM230100 00000KT P6SM -SHRA SCT008 BKN200 FM230900 00000KT 1SM BR BKN003
NOTAMs
Click for the latest NOTAMs
NOTAMs are issued by the DoD/FAA and will open in a separate window not controlled by AirNav.

 

 
 

FBO, Fuel Providers, and Aircraft Ground Support

  
 Business Name 
 
 Contact 
 
 Services / Description 
 
Fuel Prices
 
Comments
  
Columbia-Adair County Airport 270-384-0601
no information available

If you are affiliated with Columbia-Adair County Airport and would like to show here your services, contact info, web link, logo, and more, click here
100LL
SS $3.70 
 Updated 21-Feb-2018
 
   4 read write
SS=Self service
Update Fuel Prices
 

Would you like to see your business listed on this page?

 If your business provides an interesting product or service to pilots, flight crews, aircraft, or users of the Columbia-Adair County Airport, you should consider listing it here.  To start the listing process, click on the button below
 
Add a business
 

Other Pages about Columbia-Adair County Airport

Update a link
 
Copyright © AirNav, LLC. All rights reserved. Privacy Policy  Contact